Flag for U.S.A. Weather past 2 weeks in Fairbanks, Alaska, U.S.A.

32 °F

Passing clouds.

Feels Like: 23 °F
Forecast: 14 / 38 °F
Wind: 13 mph from East

Location: Wainwright U. S. Army Airfield

Current Time: Nov 27, 2015 at 9:38:20 AM

Latest Report: Nov 27, 2015 at 8:58 AM

Visibility: 10 mi

Pressure: 29.50 "Hg

Humidity: 92%

Dew point: 30 °F

Location of FairbanksLocation

Historic Weather in Fairbanks — Graph


Fairbanks temperature yesterday

Maximum temperature yesterday: 31 °F (at 4:58 AM)
Minimum temperature yesterday: 22 °F (at 7:58 PM)
Average temperature yesterday: 26 °F

Past Weeks' High & Low Weather Summary

High34 °F (Nov 27, 2:01 AM)100% (Nov 24, 11:03 PM)30.30 "Hg (Nov 24, 11:03 PM)
Low-24 °F (Nov 19, 4:58 AM)75% (Nov 15, 4:58 AM)29.13 "Hg (Nov 12, 7:03 AM)
Average6 °F87%29.80 "Hg
* Reported Nov 12 7:03 AM — Nov 27 7:58 AM, Fairbanks, Weather by CustomWeather, © 2015

Note: Actual official high and low records may vary slightly from our data, if they occured in-between our weather recording intervals... More about our weather records


Fairbanks weather history for previous 24 hours

Time TempWeatherWind HumidityBarometerVisibility
7:58 AM
Fri, Nov 27
31 °FMostly cloudy.7 mph95%29.55 "Hg10 mi
6:58 AM31 °FOvercast.6 mph98%29.56 "Hg10 mi
6:01 AM30 °FLight snow. Overcast.7 mph100%29.56 "Hg9 mi
5:58 AM30 °FOvercast.7 mph98%29.58 "Hg10 mi
4:58 AM26 °FMostly cloudy.6 mph99%29.59 "Hg10 mi
3:58 AM20 °FPassing clouds.No wind95%29.64 "Hg10 mi
2:58 AM21 °FPassing clouds.No wind96%29.67 "Hg10 mi
2:01 AM34 °FChilly.N/A100%N/AN/A
1:03 AM19 °FIce fog.2 mph100%29.70 "Hg1 mi
12:58 AM19 °FIce fog.1 mph100%29.74 "Hg6 mi
11:58 PM
Thu, Nov 26
24 °FLow clouds.2 mph96%29.77 "Hg10 mi
11:03 PM23 °FLight freezing rain. Ice fog.2 mph100%29.77 "Hg2 mi
9:58 PM23 °FLow clouds.No wind96%29.80 "Hg7 mi
8:58 PM22 °FLow clouds.No wind96%29.80 "Hg10 mi
7:58 PM22 °FLow clouds.No wind94%29.80 "Hg10 mi
6:58 PM23 °FLow clouds.No wind94%29.78 "Hg7 mi
5:58 PM24 °FIce fog.1 mph96%29.75 "Hg5 mi
4:58 PM25 °FMostly cloudy.5 mph95%29.72 "Hg10 mi
4:03 PM27 °FLight snow. Ice fog.6 mph100%29.67 "Hg3 mi
3:58 PM27 °FLight snow. Ice fog.6 mph100%29.69 "Hg2 mi
2:58 PM28 °FLight snow. Ice fog.2 mph97%29.66 "Hg1 mi
2:03 PM27 °FLight snow. Ice fog.No wind100%29.61 "Hg1 mi
1:58 PM27 °FChilly.N/A97%29.63 "HgN/A
12:58 PM27 °FLight snow. Ice fog.No wind97%29.61 "Hg6 mi
12:03 PM27 °FOvercast.No wind100%29.58 "Hg10 mi
11:58 AM27 °FMore clouds than sun.No wind100%29.60 "Hg10 mi
11:03 AM27 °FLight snow. Ice fog.No wind100%29.58 "Hg1 mi
10:58 AM27 °FLight snow. Ice fog.No wind97%29.60 "Hg1 mi
9:58 AM26 °FLight snow. Low clouds.No wind97%29.60 "Hg7 mi
Weather by CustomWeather, © 2015

See weather overviewHow to use our weather pages